Location: Caseificio
(44.7500°N, 11.0500°E)
Time: 08:17:26
(UTC+00:00)

USA 229 - Visible Passes

Search period start: 06 October 2022 00:00
Search period end: 16 October 2022 00:00
Orbit: 929 x 1283 km, 63.4° (Epoch: 28 September)

Date Brightness Start Highest point End Pass type
(mag) Time Alt. Az. Time Alt. Az. Time Alt. Az.
06 Oct 6.5 18:28:59 10° WNW 18:33:45 18° WSW 18:38:40 10° SW visible
07 Oct 6.0 17:43:07 10° NW 17:49:19 28° WSW 17:55:47 10° SSW visible
08 Oct 5.4 16:57:48 10° NW 17:04:46 43° WSW 17:12:06 10° S visible
09 Oct 6.8 18:06:39 10° WNW 18:09:52 13° WSW 18:13:08 10° SW visible
10 Oct 6.6 17:20:03 10° WNW 17:25:30 22° WSW 17:31:09 10° SSW visible
13 Oct 6.9 16:57:17 10° WNW 17:01:39 16° WSW 17:06:07 10° SW visible
14 Oct 6.2 05:00:35 10° SSE 05:05:12 22° ESE 05:10:01 10° ENE visible
15 Oct 6.6 04:18:25 10° SE 04:20:54 12° ESE 04:23:26 10° E visible
